455  
ASUS44 KEWX 241710  
RWRTX  
SOUTH TEXAS REGIONAL WEATHER ROUNDUP  
NATIONAL WEATHER SERVICE AUSTIN/SAN ANTONIO TX  
1200 PM CDT FRI OCT 24 2014  
 
NOTE: "FAIR" INDICATED FEW OR NO CLOUDS BELOW 12,000 FEET WITH NO  
SIGNIFICANT WEATHER AND/OR S TO VISIBILITY
.  
 
* - THESE STATIONS ARE NOT NWS OR FAA STATIONS...AND ARE NOT SUBJECT  
TO NWS AND FAA QUALITY CONTROL.
 
 
TXZ171-172-183>190-241800-  
TEXAS HILL COUNTRY AND EDWARDS PLATEAU  
 
CITY SKY/WX TMP DP RH WIND PRES REMARKS
 
JUNCTION SUNNY 78 58 49 S9 30.20S  
*LLANO NOT AVBL  
BURNET SUNNY 77 58 51 VRB5 30.21S  
*HORSESHOE BAY SUNNY 80 58 46 CALM 30.19S  
*KERRVILLE SUNNY 76 61 59 S7 30.22S  
*FREDERICKSBRG SUNNY 76 59 56 SW7 30.21S  
*ROCKSPRINGS SUNNY 77 57 50 S7 30.25F  
*BOERNE STAGE SUNNY 79 55 44 W7 30.21F  
*CASTROVILLE SUNNY 81 56 41 W5 30.20F  
HONDO SUNNY 76 59 55 S7 30.21F  
*UVALDE SUNNY 77 62 60 SW5 30.20F  
DEL RIO SUNNY 75 64 68 VRB5 30.18S  
LAUGHLIN AFB SUNNY 76 65 68 SE5 30.19S  
CARRIZO SPRGS SUNNY 79 61 53 SE5 30.17S  

 
 
TXZ173-191>194-202-209-217>225-228-241800-  
CENTRAL AND SOUTH CENTRAL TEXAS  
 
CITY SKY/WX TMP DP RH WIND PRES REMARKS
 
GEORGETOWN SUNNY 75 61 60 S5 30.18F  
AUSTIN/BERGSTM MOSUNNY 77 59 53 S6 30.18F  
AUSTIN/MABRY SUNNY 77 60 55 VRB3 30.19F  
*AUSTIN/EXEC SUNNY 75 57 53 SW5 30.19S  
*LAGO VISTA SUNNY 77 59 54 SW3 30.20F  
SAN MARCOS SUNNY 77 57 50 CALM 30.19F  
NEW BRAUNFELS SUNNY 79 57 46 W5 30.17F  
RANDOLPH AFB SUNNY 78 58 49 VRB2 30.19F  
PT SAN ANTONIO SUNNY 79 59 49 VRB2 30.18S  
SAN ANTONIO SUNNY 79 59 50 CALM 30.19F  
STINSON FIELD SUNNY 79 57 46 CALM 30.17F  
*PLEASANTON SUNNY 80 58 46 CALM 30.19S  
*LA GRANGE SUNNY 75 58 54 CALM 30.17S  
*GIDDINGS SUNNY 75 56 50 CALM 30.22S HAZE  
*GONZALES SUNNY 77 59 54 CALM 30.17F  

 
 
TXZ163>164-176>182-195>201-210>213-226-227-235-241800-  
SOUTHEAST TEXAS  
 
CITY SKY/WX TMP DP RH WIND PRES REMARKS
 
COLLEGE STN MOSUNNY 72 54 53 CALM 30.19S  
*BRYAN PTSUNNY 71 55 58 CALM 30.20F  
*CALDWELL MOSUNNY 72 54 53 CALM 30.22S  
*CROCKETT SUNNY 73 55 53 CALM 30.22F HAZE  
*BRENHAM SUNNY 75 54 48 N3 30.20R  
HUNTSVILLE SUNNY 73 48 41 VRB3 30.19S  
CONROE SUNNY 71 48 43 VRB3 30.19S  
HOUSTON BUSH SUNNY 71 52 50 CALM 30.17F  
HOUSTON HOBBY SUNNY 73 49 42 NE7 30.17S  
*HOUSTON SW AP SUNNY 67 49 51 NE6 30.17F  
PEARLAND SUNNY 74 49 41 NE8 30.18S  
HOUSTON HOOKS SUNNY 72 52 49 N3 30.18S  
ELLINGTON FLD SUNNY 72 52 49 NE6 30.18F  
SUGAR LAND SUNNY 74 52 46 N6 30.17S  
*HOUSTON EXEC SUNNY 72 N/A N/A N6 30.19S  
*CLEVELAND MUN SUNNY 71 55 57 CALM 30.18F  
*WHARTON SUNNY 76 47 36 N6 30.17F  
*COLUMBUS FAIR 75 53 46 N3 30.17F  

 
 
TXZ214>216-236>238-241800-  
THE UPPER TEXAS COAST  
 
CITY SKY/WX TMP DP RH WIND PRES REMARKS
 
*ORANGE SUNNY 69 51 52 N6 30.18S  
PORT ARTHUR SUNNY 72 52 49 VRB6 30.16S  
GALVESTON SUNNY 71 55 56 N10 30.17S  
ANGLETON SUNNY 74 54 49 N7 30.16F  
*BAY CITY N/A 75 55 49 NE7 30.16F  
PALACIOS SUNNY 78 56 46 N9G18 30.16S  

 
 
TXZ229>234-239>247-241800-  
TEXAS COASTAL BEND AND RIO GRANDE PLAINS  
 
CITY SKY/WX TMP DP RH WIND PRES REMARKS
 
VICTORIA SUNNY 81 56 42 N8 30.17S  
*BEEVILLE SUNNY 79 59 50 CALM 30.17S  
ROCKPORT SUNNY 80 60 50 NW8 30.16S  
*PORT ARANSAS SUNNY 77 59 53 N6 30.16S  
*PORT LAVACA SUNNY 77 59 54 NE7 30.17S  
*INGLESIDE SUNNY 80 57 44 NE7 30.16S  
CORPUS CHRISTI MOSUNNY 80 64 58 N6 30.16S  
CORPUS NAS MOSUNNY 79 67 66 NE7 30.16S  
*ROBSTOWN HVY RAIN 80 64 58 NE5 30.16F  
ALICE SUNNY 82 62 50 VRB5 30.16S  
KINGSVILLE NAS MOSUNNY 81 66 60 NE7 30.16S  
COTULLA SUNNY 82 60 47 VRB6 30.18S  
*FAITH RANCH SUNNY 81 63 54 S7 30.18S  
LAREDO SUNNY 82 63 52 CALM 30.20S  

 
 
TXZ248>255-241800-  
DEEP SOUTH TEXAS  
 
CITY SKY/WX TMP DP RH WIND PRES REMARKS
 
BROWNSVILLE SUNNY 83 64 52 NE7 30.14S  
PORT ISABEL MOSUNNY 82 64 54 N9 30.14S  
*SOUTH PADRE SUNNY N/A N/A N/A N8 30.13F  
HARLINGEN SUNNY 82 65 56 NE8 30.14S  
*HEBBRONVILLE SUNNY 80 58 46 CALM 30.18S  
MCALLEN SUNNY 81 63 54 N7 30.16S  
*WESLACO SUNNY 82 62 50 NE3 30.15F  
FALFURRIAS SUNNY 79 62 56 CALM 30.16S  
EDINBURG SUNNY 82 64 53 CALM 30.16F  
*ZAPATA SUNNY 82 60 48 SE3 30.16F  

 
 
TXZ213>215-236>238-242>244-246-247-251-254-255-241800-  
CMAN STATIONS  
 
STATION/POSITION TIME TEMP WIND PRES WAVE
 
AIR SEA DIR/SP/G HT/PER  
(UTC) (F) (DEG/KT/KT) (MB) (FT/S)  
SABINE PASS 1700 67 72 40/ 6/ 10 1021.3  
SEA RIM ST PARK 1700 67 40/ 8/ 11 1021.7  
NORTH JETTY/GLS 1700 68 74 60/ 8/ 9 N/A  
EAGLE POINT 1700 65 72 40/ 6/ 9 1021.7  
MORGANS POINT 1700 68 70/ 5/ 7 1021.5  
MISSION/ARANSAS 1600 10/ 5 1023.0  
PORT O'CONNOR 1700 20/ 7/ 8 N/A  
PORT ARANSAS 1700 75 78 40/ 7/ 7 1022.1  
MALAQUITE BEACH 1700 76 78 30/ 8/ 8 1020.7  
BAFFIN BAY 1700 76 81 360/ 8/ 10 1021.2  
PORT ISABEL 1700 78 78 340/ 9/ 11 1020.5  

 
 
GMZ080-GMZ150>470-241800-  
OFFSHORE BUOY REPORTS  
 
STATION/POSITION TIME TEMP WIND PRES WAVE
 
AIR SEA DIR/SP/G HT/PER  
(UTC) (F) (DEG/KT/KT) (MB) (FT/S)  
20 E GALVESTON 1700 67 77 30/ 10/ 14 1020.9 2/ 7  
90 E PT ARANSAS 1700 74 81 20/ 10/ 14 1021.1 4/ 8  
35 NE PT MANSFLD 1700 77 80 40/ 10/ 14 1020.3 3/ 8  
200 E PT ISABEL 1700 76 81 40/ 10/ 14 1019.0 5/ 7  

 
 
CLICK HERE TO GO TO PREVIOUS BULLETINS.

The Nexlab TX Page Main Text Page